Miscellaneous Local Product
Issued by NWS Hastings, NE

Home | Current Version | Previous Version | Text Only | Print | Product List | Glossary On
Versions: 1 2 3 4 5 6 7 8 9 10 11 12 13 14 15 16 17 18 19 20 21 22 23 24 25 26 27 28 29 30 31 32 33 34 35 36 37 38 39 40 41 42 43 44 45 46 47 48 49 50
791
AXUS43 KGID 230802
MISGRI

GID CWA HOURLY WEATHER ROUNDUP
NATIONAL WEATHER SERVICE HASTINGS NE
300 AM CDT FRI JUN 23 2017

NOTE: "FAIR" INDICATES FEW OR NO CLOUDS BELOW 12,000 FEET WITH NO
SIGNIFICANT WEATHER AND/OR OBSTRUCTIONS TO VISIBILITY.

...SOUTH CENTRAL NEBRASKA...

CITY           SKY/WX    TMP DP  RH WIND       PRES   REMARKS
GRAND ISLAND   LGT RAIN  63  57  81 N7        29.89S
HASTINGS       PTCLDY    66  54  65 N13       29.90R
KEARNEY        CLOUDY    64  52  63 N12       29.92S
ORD            CLOUDY    62  48  60 N7        29.89F
YORK           MOCLDY    66  59  77 NE8       29.85F
AURORA         PTCLDY    64  57  79 N12       29.87S
LEXINGTON      MOCLDY    62  52  69 CALM      29.93F
HOLDREGE       MOCLDY    64  51  62 N8        29.93R
HEBRON         CLOUDY    72  61  68 NE17G24   29.82S

...NEBRASKA PANHANDLE...

CITY           SKY/WX    TMP DP  RH WIND       PRES   REMARKS
CHADRON        LGT RAIN  55  42  61 NE8       30.15R
ALLIANCE       CLOUDY    56  43  61 NE7       30.11R
SCOTTSBLUFF    CLOUDY    63  36  36 NE15      30.12R
SIDNEY         LGT RAIN  59  55  87 N6        30.12R

...WESTERN AND NORTH CENTRAL NEBRASKA...

CITY           SKY/WX    TMP DP  RH WIND       PRES   REMARKS
VALENTINE      CLOUDY    64  35  34 N17G26    30.03R
AINSWORTH      CLOUDY    58  48  68 N7        30.01R
ONEILL         CLOUDY    61  51  71 NW8       29.93F
BROKEN BOW     CLOUDY    62  50  64 N5        29.94F
IMPERIAL       CLOUDY    64  46  52 E10       29.99F
NORTH PLATTE   CLOUDY    66  49  54 CALM      29.98S
MCCOOK         CLOUDY    63  50  62 N5        29.96R

...EASTERN NEBRASKA...

CITY           SKY/WX    TMP DP  RH WIND       PRES   REMARKS
NORFOLK        CLEAR     56  51  84 NW7       29.88R
SO SIOUX CITY    N/A    N/A N/A N/A MISG      29.84F
TEKAMAH        MOCLDY    62  52  69 N7        29.82F
COLUMBUS       PTCLDY    63  56  78 NW9       29.87S
ALBION         CLOUDY    55  50  82 N3        29.90F
OMAHA EPPLEY   CLOUDY    70  61  73 N12       29.80F
OFFUTT AFB     MOCLDY    72  61  68 N13       29.86F
MILLARD        CLOUDY    72  63  72 N6        29.81F
LINCOLN        MOCLDY    69  61  75 N9        29.82F
NEBRASKA CITY  CLOUDY    68  68 100 N15       29.79F
BEATRICE       CLOUDY    71  64  76 N16G23    29.80F
FALLS CITY     LGT RAIN  71  67  87 N17G30    29.74F

...NORTHERN KANSAS...

CITY           SKY/WX    TMP DP  RH WIND       PRES   REMARKS
GOODLAND       CLOUDY    64  50  60 NE10      30.00F
HILL CITY      CLOUDY    68  59  73 N15       29.92S
NORTON         SUNNY     64  52  63 CALM      29.95R
PHILLIPSBURG   CLOUDY    70  57  64 NW6       29.91S
SMITH CENTER   MOCLDY    66  57  72 N12       29.88F
HAYS           CLOUDY    69  63  81 N22       29.84F
RUSSELL        CLOUDY    69  63  81 N21       29.81F
CONCORDIA      CLOUDY    73  64  73 N18G24    29.81R
SALINA         CLOUDY    77  65  66 N21       29.74S
TOPEKA         CLOUDY    77  74  90 S6        29.68F



USA.gov is the U.S. government's official web portal to all federal, state and local government web resources and services.